Bloomington, IL

9:50 AM CDT on July 21, 2017 (GMT -0500)
Central Ill Regional

Weather History for KBMI - October, 2010

Change the Weather History Date:

Wednesday, October 20, 2010

  Actual Average Record
Temperature  
Mean Temperature 54 °F -  
Max Temperature 68 °F 77 °F 84 °F (2003)
Min Temperature 41 °F 38 °F 30 °F (2006)
Degree Days  
Heating Degree Days 10    
Growing Degree Days 4 (Base 50)    
Moisture  
Dew Point 36 °F    
Average Humidity 51    
Maximum Humidity 73    
Minimum Humidity 29    
Precipitation  
Precipitation 0.00 in - - ()
Sea Level Pressure  
Sea Level Pressure 29.87 in    
Wind  
Wind Speed 11 mph (WSW)    
Max Wind Speed 20 mph    
Max Gust Speed -    
Visibility 10 miles    
Events      
Averages and records for this station are not official NWS values.
T = Trace of Precipitation, MM = Missing Value Source: NWS Daily Summary

Daily Weather History Graph

Daily Weather History Graph

Search for Another Location

Airport or City:

Trip Planner

Search our weather history database for the weather conditions in past years. The results will help you decide how hot, cold, wet, or windy it might be!

Date:

Astronomy

Oct. 20, 2010 Rise Set
Actual Time 7:12 AM CDT 6:08 PM CDT
Civil Twilight 6:44 AM CDT 6:35 PM CDT
Nautical Twilight 6:12 AM CDT 7:07 PM CDT
Astronomical Twilight 5:40 AM CDT 7:39 PM CDT
Moon 4:42 PM CDT (10/20) 4:53 AM CDT (10/20)
Length of Visible Light 11h 51m
Length of Day
10h 56m
Waxing Gibbous, 95% of the Moon is Illuminated
Oct 20
Waxing Gibbous
Oct 22
Full
Oct 30
Last Quarter
Nov 5
New
Nov 13
First Quarter

Hourly Weather History & Observations

Time (CDT) Temp. Windchill Dew Point Humidity Pressure Visibility Wind Dir Wind Speed Gust Speed Precip Events Conditions
12:56 AM 43.9 °F 40.5 °F 34.9 °F 71% 29.97 in 10.0 mi SW 5.8 mph - N/A   Clear
1:56 AM 41.0 °F 36.4 °F 32.9 °F 73% 29.96 in 10.0 mi SSW 6.9 mph - N/A   Clear
2:56 AM 41.9 °F 36.3 °F 34.0 °F 73% 29.94 in 10.0 mi SW 9.2 mph - N/A   Scattered Clouds
3:56 AM 43.0 °F 38.2 °F 34.9 °F 73% 29.93 in 10.0 mi SW 8.1 mph - N/A   Scattered Clouds
4:56 AM 43.9 °F 39.3 °F 34.0 °F 68% 29.92 in 10.0 mi SW 8.1 mph - N/A   Clear
5:56 AM 43.0 °F 36.8 °F 34.0 °F 71% 29.92 in 10.0 mi SW 11.5 mph - N/A   Clear
6:56 AM 41.9 °F 36.3 °F 32.9 °F 70% 29.92 in 10.0 mi SW 9.2 mph - N/A   Clear
7:56 AM 43.9 °F 37.9 °F 34.0 °F 68% 29.91 in 10.0 mi SW 11.5 mph - N/A   Clear
8:56 AM 50.9 °F - 36.0 °F 57% 29.91 in 10.0 mi SW 13.8 mph - N/A   Clear
9:56 AM 54.9 °F - 36.9 °F 51% 29.90 in 10.0 mi WSW 19.6 mph - N/A   Clear
10:56 AM 57.9 °F - 38.8 °F 49% 29.89 in 10.0 mi SW 18.4 mph - N/A   Clear
11:56 AM 61.0 °F - 38.8 °F 44% 29.89 in 10.0 mi WSW 15.0 mph - N/A   Clear
12:56 PM 63.9 °F - 38.8 °F 40% 29.86 in 10.0 mi WSW 16.1 mph - N/A   Clear
1:56 PM 66.9 °F - 36.0 °F 32% 29.84 in 10.0 mi West 16.1 mph - N/A   Clear
2:56 PM 68.9 °F - 36.0 °F 30% 29.83 in 10.0 mi West 17.3 mph - N/A   Clear
3:56 PM 68.9 °F - 34.9 °F 29% 29.81 in 10.0 mi WSW 12.7 mph - N/A   Clear
4:56 PM 68.0 °F - 34.9 °F 29% 29.80 in 10.0 mi WSW 15.0 mph - N/A   Clear
5:56 PM 65.8 °F - 34.9 °F 32% 29.79 in 10.0 mi WSW 12.7 mph - N/A   Clear
6:56 PM 63.9 °F - 36.0 °F 36% 29.80 in 10.0 mi WSW 13.8 mph - N/A   Clear
7:56 PM 61.9 °F - 34.9 °F 36% 29.80 in 10.0 mi WSW 11.5 mph - N/A   Clear
9:56 PM 59.0 °F - 36.9 °F 44% 29.80 in 10.0 mi WSW 15.0 mph - N/A   Clear
10:56 PM 57.9 °F - 36.9 °F 45% 29.79 in 10.0 mi WSW 19.6 mph - N/A   Clear
11:56 PM 55.9 °F - 36.9 °F 49% 29.81 in 10.0 mi West 13.8 mph - N/A   Clear